TimeMST,TemperatureF,Dew PointF,Humidity,Sea Level PressureIn,VisibilityMPH,Wind Direction,Wind SpeedMPH,Gust SpeedMPH,PrecipitationIn,Events,Conditions,WindDirDegrees,DateUTC
12:15 AM,1.4,-2.2,85,30.44,10.0,Calm,Calm,-,N/A,,Clear,0,2013-12-12 07:15:00
12:35 AM,3.2,-0.4,85,30.43,10.0,SSE,4.6,-,N/A,,Clear,150,2013-12-12 07:35:00
12:55 AM,-0.4,-4.0,85,30.43,10.0,Calm,Calm,-,N/A,,Clear,0,2013-12-12 07:55:00
1:15 AM,-0.4,-4.0,85,30.42,7.0,Calm,Calm,-,N/A,,Clear,0,2013-12-12 08:15:00
1:35 AM,1.4,-2.2,85,30.42,7.0,Calm,Calm,-,N/A,,Clear,0,2013-12-12 08:35:00
1:55 AM,1.4,-4.0,78,30.42,10.0,Calm,Calm,-,N/A,,Clear,0,2013-12-12 08:55:00
2:15 AM,-0.4,-4.0,85,30.42,10.0,Calm,Calm,-,N/A,,Clear,0,2013-12-12 09:15:00
2:35 AM,-4.0,-7.6,85,30.43,10.0,Calm,Calm,-,N/A,,Clear,0,2013-12-12 09:35:00
2:55 AM,-0.4,-4.0,85,30.42,10.0,Calm,Calm,-,N/A,,Clear,0,2013-12-12 09:55:00
3:15 AM,-4.0,-7.6,85,30.42,10.0,Calm,Calm,-,N/A,,Clear,0,2013-12-12 10:15:00
3:35 AM,-4.0,-7.6,85,30.42,10.0,Calm,Calm,-,N/A,,Clear,0,2013-12-12 10:35:00
3:55 AM,-2.2,-5.8,85,30.42,10.0,Calm,Calm,-,N/A,,Clear,0,2013-12-12 10:55:00
4:15 AM,-0.4,-4.0,85,30.42,10.0,Calm,Calm,-,N/A,,Clear,0,2013-12-12 11:15:00
4:35 AM,-4.0,-7.6,85,30.41,10.0,Calm,Calm,-,N/A,,Clear,0,2013-12-12 11:35:00
4:55 AM,-2.2,-5.8,85,30.40,10.0,Calm,Calm,-,N/A,,Clear,0,2013-12-12 11:55:00
5:15 AM,-0.4,-4.0,85,30.40,10.0,Calm,Calm,-,N/A,,Clear,0,2013-12-12 12:15:00
5:35 AM,-2.2,-5.8,85,30.40,10.0,Calm,Calm,-,N/A,,Clear,0,2013-12-12 12:35:00
5:55 AM,-0.4,-4.0,85,30.39,10.0,Calm,Calm,-,N/A,,Clear,0,2013-12-12 12:55:00
6:15 AM,-2.2,-5.8,85,30.39,10.0,Calm,Calm,-,N/A,,Clear,0,2013-12-12 13:15:00
6:35 AM,-4.0,-7.6,85,30.38,10.0,Calm,Calm,-,N/A,,Clear,0,2013-12-12 13:35:00
6:55 AM,-2.2,-5.8,85,30.38,10.0,South,3.5,-,N/A,,Clear,180,2013-12-12 13:55:00
7:15 AM,-4.0,-7.6,85,30.39,10.0,Calm,Calm,-,N/A,,Clear,0,2013-12-12 14:15:00
7:55 AM,-2.2,-5.8,85,30.39,10.0,South,3.5,-,N/A,,Clear,180,2013-12-12 14:55:00
8:15 AM,-4.0,-7.6,85,30.38,10.0,Calm,Calm,-,N/A,,Clear,0,2013-12-12 15:15:00
8:35 AM,-2.2,-5.8,85,30.38,10.0,Calm,Calm,-,N/A,,Clear,0,2013-12-12 15:35:00
8:55 AM,-0.4,-5.8,78,30.38,10.0,Calm,Calm,-,N/A,,Clear,0,2013-12-12 15:55:00
9:15 AM,1.4,-2.2,85,30.38,4.0,Calm,Calm,-,N/A,,Clear,0,2013-12-12 16:15:00
9:35 AM,3.2,-0.4,85,30.38,10.0,Calm,Calm,-,N/A,,Clear,0,2013-12-12 16:35:00
9:55 AM,3.2,-0.4,85,30.37,10.0,Calm,Calm,-,N/A,,Clear,0,2013-12-12 16:55:00
10:15 AM,5.0,1.4,85,30.37,10.0,Calm,Calm,-,N/A,,Clear,0,2013-12-12 17:15:00
10:35 AM,8.6,3.2,79,30.36,10.0,Calm,Calm,-,N/A,,Clear,0,2013-12-12 17:35:00
10:55 AM,8.6,3.2,79,30.35,10.0,Calm,Calm,-,N/A,,Clear,0,2013-12-12 17:55:00
11:15 AM,8.6,3.2,79,30.34,10.0,Calm,Calm,-,N/A,,Clear,0,2013-12-12 18:15:00
11:35 AM,10.4,5.0,79,30.33,10.0,Calm,Calm,-,N/A,,Clear,0,2013-12-12 18:35:00
11:55 AM,12.2,5.0,73,30.31,10.0,Calm,Calm,-,N/A,,Clear,0,2013-12-12 18:55:00
12:15 PM,12.2,5.0,73,30.30,10.0,Calm,Calm,-,N/A,,Clear,0,2013-12-12 19:15:00
12:35 PM,14.0,6.8,73,30.29,10.0,Calm,Calm,-,N/A,,Clear,0,2013-12-12 19:35:00
12:55 PM,15.8,6.8,68,30.27,10.0,Calm,Calm,-,N/A,,Clear,0,2013-12-12 19:55:00
1:15 PM,17.6,8.6,68,30.26,10.0,Calm,Calm,-,N/A,,Clear,0,2013-12-12 20:15:00
1:35 PM,17.6,8.6,68,30.24,10.0,Calm,Calm,-,N/A,,Clear,0,2013-12-12 20:35:00
1:55 PM,19.4,10.4,68,30.23,10.0,Calm,Calm,-,N/A,,Clear,0,2013-12-12 20:55:00
2:15 PM,19.4,10.4,68,30.22,10.0,Calm,Calm,-,N/A,,Clear,0,2013-12-12 21:15:00
2:35 PM,19.4,10.4,68,30.21,10.0,Calm,Calm,-,N/A,,Clear,0,2013-12-12 21:35:00
2:55 PM,19.4,10.4,68,30.20,10.0,Calm,Calm,-,N/A,,Clear,0,2013-12-12 21:55:00
3:15 PM,19.4,10.4,68,30.19,10.0,Calm,Calm,-,N/A,,Clear,0,2013-12-12 22:15:00
3:35 PM,19.4,10.4,68,30.19,10.0,Calm,Calm,-,N/A,,Clear,0,2013-12-12 22:35:00
3:55 PM,19.4,10.4,68,30.18,10.0,Calm,Calm,-,N/A,,Clear,0,2013-12-12 22:55:00
4:15 PM,19.4,10.4,68,30.18,10.0,Calm,Calm,-,N/A,,Clear,0,2013-12-12 23:15:00
4:35 PM,17.6,10.4,73,30.18,10.0,Calm,Calm,-,N/A,,Clear,0,2013-12-12 23:35:00
4:55 PM,14.0,8.6,79,30.18,10.0,Calm,Calm,-,N/A,,Clear,0,2013-12-12 23:55:00
5:15 PM,14.0,8.6,79,30.18,10.0,Calm,Calm,-,N/A,,Clear,0,2013-12-13 00:15:00
5:35 PM,10.4,5.0,79,30.18,10.0,Calm,Calm,-,N/A,,Clear,0,2013-12-13 00:35:00
5:55 PM,8.6,5.0,85,30.18,10.0,Calm,Calm,-,N/A,,Clear,0,2013-12-13 00:55:00
6:15 PM,8.6,3.2,79,30.16,10.0,Calm,Calm,-,N/A,,Clear,0,2013-12-13 01:15:00
6:35 PM,10.4,5.0,79,30.16,10.0,Calm,Calm,-,N/A,,Clear,0,2013-12-13 01:35:00
6:55 PM,3.2,-0.4,85,30.16,10.0,Calm,Calm,-,N/A,,Clear,0,2013-12-13 01:55:00
7:15 PM,5.0,3.2,92,30.15,10.0,Calm,Calm,-,N/A,,Clear,0,2013-12-13 02:15:00
7:35 PM,6.8,3.2,85,30.15,10.0,Calm,Calm,-,N/A,,Clear,0,2013-12-13 02:35:00
7:55 PM,3.2,-0.4,85,30.14,10.0,Calm,Calm,-,N/A,,Clear,0,2013-12-13 02:55:00
8:15 PM,8.6,5.0,85,30.13,10.0,Calm,Calm,-,N/A,,Clear,0,2013-12-13 03:15:00
8:35 PM,5.0,3.2,92,30.12,10.0,Calm,Calm,-,N/A,,Clear,0,2013-12-13 03:35:00
8:55 PM,5.0,3.2,92,30.12,10.0,Calm,Calm,-,N/A,,Clear,0,2013-12-13 03:55:00
9:15 PM,1.4,-0.4,92,30.12,10.0,Calm,Calm,-,N/A,,Clear,0,2013-12-13 04:15:00
9:35 PM,3.2,1.4,92,30.12,7.0,Calm,Calm,-,N/A,,Clear,0,2013-12-13 04:35:00
9:55 PM,3.2,1.4,92,30.11,10.0,SSE,3.5,-,N/A,,Clear,160,2013-12-13 04:55:00
10:15 PM,3.2,1.4,92,30.12,10.0,Calm,Calm,-,N/A,,Clear,0,2013-12-13 05:15:00
10:35 PM,3.2,1.4,92,30.12,7.0,NNE,3.5,-,N/A,,Clear,20,2013-12-13 05:35:00
10:55 PM,5.0,3.2,92,30.12,7.0,Calm,Calm,-,N/A,,Clear,0,2013-12-13 05:55:00
11:15 PM,3.2,1.4,92,30.12,7.0,Calm,Calm,-,N/A,,Clear,0,2013-12-13 06:15:00
11:35 PM,3.2,-0.4,85,30.12,7.0,North,-9999.0,-,N/A,,Clear,0,2013-12-13 06:35:00
11:55 PM,5.0,3.2,92,30.10,10.0,Calm,Calm,-,N/A,,Clear,0,2013-12-13 06:55:00